Location: Newark
(41.6500°N, 71.4833°W)
Time: 11:53:25
(UTC+00:00)

Courier 1B - Pass Details

Date: 29 January 2020
Orbit: 962 x 1209 km, 28.3° (Epoch: 25 February)

Event Time Altitude Azimuth Distance (km) Brightness Sun altitude
Rises 07:01:19 0° 239° (WSW) 3,760 - -54.8°
Reaches altitude 10° 07:04:24 10° 227° (SW) 2,848 - -54.3°
Maximum altitude 07:10:02 27° 173° (S) 1,962 - -53.4°
Drops below altitude 10° 07:15:57 10° 119° (ESE) 3,001 - -52.5°
Exits shadow 07:17:28 - 113° (ESE) 3,442 10.6 -52.2°
Sets 07:19:17 0° 108° (ESE) 4,001 11.1 -51.9°
